Theta_e
334 332 333 329 313 311 307 309 317 315 315 319 313 313 314 315 313 313 331 337 338 332 337 343 345 346 345 346 345 346 343 340 338 336 335 335 335 334 335 335 334 334 335 337 335 334 334 334 334
331 327 329 322 307 302 305 312 312 317 321 322 317 320 317 316 322 324 329 336 337 331 339 340 343 347 347 347 346 346 345 342 338 336 336 336 335 335 334 334 334 335 336 334 334 334 333 333 333
327 324 319 314 307 302 304 312 316 319 323 321 320 323 322 320 323 327 333 337 331 337 341 341 343 346 348 348 347 345 345 342 338 336 336 336 335 335 334 334 334 334 334 334 334 334 333 332 332
324 324 319 308 304 308 309 314 317 320 321 324 323 318 321 325 325 331 335 335 332 338 340 342 344 347 347 348 348 346 344 341 337 337 336 336 336 335 334 334 334 334 333 334 334 334 334 335 334
324 319 308 305 305 309 313 315 319 319 320 322 322 318 319 325 331 333 334 331 333 337 339 343 344 346 347 347 346 345 344 340 337 338 337 336 337 334 333 333 333 333 332 333 333 333 334 335 334
315 316 304 301 305 309 313 317 320 320 321 321 320 319 319 328 330 331 332 332 335 336 338 343 337 340 343 345 344 344 343 341 340 339 338 338 336 332 332 333 332 332 332 332 333 333 334 335 334
312 309 304 304 304 307 311 318 319 320 321 321 324 318 322 324 329 332 332 332 334 336 337 342 343 340 336 338 338 339 340 339 338 338 337 336 334 334 333 332 331 331 332 333 334 335 335 335 334
315 311 304 305 303 305 313 317 320 321 320 325 326 318 319 323 328 333 332 331 332 334 334 338 342 342 341 338 331 332 334 335 335 334 332 330 331 331 330 328 330 330 332 333 334 334 333 333 332
316 306 302 304 304 307 314 314 320 323 321 322 324 322 324 327 328 329 328 328 330 331 333 334 336 340 341 339 331 328 330 331 330 329 325 325 329 328 327 325 328 330 330 332 334 333 330 330 329
312 306 305 310 311 309 312 311 316 318 318 319 321 322 325 327 326 324 325 324 325 328 331 333 332 332 333 331 332 331 332 332 331 330 329 328 329 330 331 324 324 325 325 331 332 329 328 327 327
311 305 310 310 312 312 310 310 313 316 315 320 320 322 323 323 323 324 324 325 325 329 330 332 331 331 330 330 331 331 331 331 331 331 331 331 331 333 334 335 335 336 324 336 335 331 328 325 323
306 310 311 312 313 311 309 311 310 314 317 321 323 326 323 322 322 322 323 323 325 327 329 331 330 329 329 328 329 329 327 330 330 331 332 332 332 333 334 335 335 335 335 333 331 328 322 318 319
307 308 311 313 313 312 313 310 310 311 317 322 323 323 322 323 323 324 325 326 326 325 327 329 330 328 328 326 325 326 327 330 331 332 333 332 332 333 334 334 331 327 324 325 325 322 314 315 316
306 307 308 312 312 312 309 310 311 312 315 315 320 321 322 323 323 323 323 324 323 325 325 328 329 328 327 325 325 327 329 332 332 333 333 333 333 333 332 329 326 322 321 318 318 313 309 312 315
304 300 304 306 309 310 312 306 307 313 315 316 318 320 321 323 323 323 324 323 324 324 326 326 328 329 326 324 326 329 331 331 332 333 333 332 331 331 325 324 317 315 316 317 318 309 308 312 313
298 299 293 301 306 309 308 300 310 314 312 313 317 320 319 322 321 324 324 324 324 324 324 326 329 328 327 323 326 329 331 331 327 326 329 327 326 322 317 312 308 308 312 311 308 307 305 310 311
293 288 292 296 305 307 307 302 309 314 313 313 314 319 318 320 320 322 323 324 325 325 324 325 329 328 327 323 327 329 324 320 315 316 319 318 316 315 313 307 305 306 306 306 304 302 303 308 306
286 287 289 290 298 303 302 302 308 311 312 312 314 318 319 318 319 322 323 325 325 326 326 328 330 328 327 324 323 315 309 307 308 307 309 313 311 308 305 303 304 303 304 303 303 301 301 302 303
290 288 288 293 298 297 296 298 302 309 311 312 313 316 319 319 320 322 324 326 326 327 327 328 327 328 326 320 315 310 307 305 302 301 302 303 304 303 303 300 300 301 300 299 299 299 295 295 296
288 286 287 291 295 295 295 294 298 300 304 311 313 315 318 318 319 319 322 324 324 325 326 326 326 326 324 321 320 315 306 303 300 298 299 300 300 300 300 299 298 298 296 294 294 296 296 293 293
286 285 285 286 291 294 293 291 295 300 301 306 311 316 318 319 318 316 319 321 323 324 325 325 326 325 322 319 304 301 300 298 296 296 296 297 298 298 297 297 296 294 294 292 292 292 294 292 295
283 289 288 287 286 283 294 282 292 297 300 302 306 312 316 319 319 317 317 320 322 323 326 327 327 325 322 310 306 303 307 302 297 295 295 296 298 296 295 294 293 292 292 291 291 292 293 295 293
285 290 288 288 286 284 284 284 290 296 295 300 304 312 316 319 319 317 316 319 322 325 326 327 326 322 315 312 310 308 305 297 294 294 294 294 293 293 292 292 292 290 290 291 292 292 291 291 290
292 289 289 289 286 278 284 284 286 291 295 299 306 310 315 318 319 319 315 316 317 318 319 317 317 313 310 307 305 301 297 293 293 294 293 291 291 291 290 289 289 289 290 290 290 290 290 289 288
290 285 277 276 276 277 287 285 288 295 298 301 304 308 312 318 317 308 306 309 307 309 309 308 305 300 301 300 297 296 294 294 294 293 291 289 288 288 288 288 288 288 289 289 289 288 288 287 286
287 285 279 273 276 280 289 283 290 298 301 302 305 309 312 315 311 306 306 305 304 303 303 303 300 297 297 296 295 296 296 296 295 293 291 289 288 287 288 288 288 288 287 287 287 287 286 286 285
286 282 288 282 283 279 286 291 296 296 296 298 302 306 311 311 309 307 304 302 301 300 299 299 298 297 297 296 297 297 296 295 291 290 290 288 287 287 287 287 287 286 286 286 286 285 284 284 284
288 288 282 283 277 276 283 286 288 289 291 292 293 305 308 306 305 302 300 300 300 298 297 297 297 296 295 295 295 293 292 291 289 288 286 286 286 287 286 286 285 285 285 285 284 284 283 282 282
285 284 285 285 285 280 279 285 289 288 290 290 293 302 300 299 298 297 296 295 295 295 294 294 294 293 293 292 291 289 288 288 287 286 286 286 286 285 285 284 284 284 283 283 283 283 282 281 280
289 285 286 280 282 284 284 284 291 290 292 296 291 292 295 295 294 293 292 292 292 291 292 291 290 289 289 288 287 286 286 286 285 285 285 285 284 284 284 284 283 283 282 282 282 281 281 280 279
Wind_Speed
13 4 2 4 6 5 8 6 3 8 8 4 10 5 3 4 2 3 6 7 14 16 15 14 10 14 13 12 14 15 16 14 13 13 12 12 11 11 11 10 10 10 10 10 10 10 10 9 9
11 3 3 2 6 8 8 4 8 7 7 10 9 7 5 3 3 7 10 9 16 15 14 14 11 12 13 13 14 15 15 15 14 13 13 12 11 10 10 10 9 9 9 10 10 9 9 8 8
5 3 4 4 5 10 6 6 5 2 10 8 7 3 3 3 4 13 4 15 16 15 13 12 10 12 14 15 14 15 14 15 14 13 12 12 11 10 9 9 8 9 9 10 9 9 9 9 8
4 3 3 6 10 9 7 3 4 9 5 6 3 5 3 2 7 11 16 17 16 14 12 11 10 13 15 16 14 16 15 16 14 13 12 12 11 10 9 8 8 8 8 9 9 8 8 8 8
1 2 6 6 12 6 7 6 7 12 5 8 8 6 3 5 7 14 18 16 14 14 11 11 9 11 17 17 15 16 16 15 13 12 13 12 10 9 9 8 7 7 7 7 7 7 7 7 7
3 2 7 11 14 6 8 6 7 12 7 5 6 7 5 7 13 16 17 17 14 14 12 11 9 10 13 14 16 16 15 14 12 11 11 11 10 9 8 7 6 6 6 6 6 6 6 6 7
6 6 9 11 11 8 8 5 10 13 10 8 1 8 5 10 12 16 16 16 14 12 12 11 12 12 12 12 12 13 13 12 12 11 10 9 7 7 7 6 5 6 5 6 6 6 7 8 9
4 5 9 10 12 14 2 4 5 12 10 2 6 7 5 16 15 17 16 15 13 12 12 12 11 13 13 12 11 12 11 11 10 10 9 8 8 7 6 4 4 4 5 6 7 7 8 8 8
2 9 13 17 15 11 4 5 3 4 5 5 8 2 3 22 18 18 17 16 12 11 12 11 12 10 11 11 10 10 9 9 9 8 7 7 6 7 7 5 2 4 4 5 7 8 8 3 6
11 13 20 11 14 10 5 5 4 4 7 7 6 3 9 21 19 22 21 18 18 16 15 12 11 11 10 8 11 10 10 9 8 8 8 5 6 5 3 3 2 3 2 6 6 6 3 4 5
7 17 16 13 12 7 5 5 4 8 8 13 14 13 18 21 18 20 19 18 18 16 12 13 11 10 10 8 7 5 5 6 6 9 8 6 5 4 4 3 3 3 1 2 2 4 5 7 5
13 12 15 16 11 7 9 4 5 10 16 4 4 14 18 21 21 23 21 19 20 16 16 14 13 11 10 7 7 7 6 6 6 7 7 5 4 4 4 3 3 3 3 4 4 4 5 6 6
17 15 14 16 18 18 19 18 17 12 15 11 3 17 21 21 21 19 18 17 17 16 15 14 14 12 10 9 7 7 7 6 6 7 7 5 5 4 4 4 4 4 4 3 3 3 4 5 6
10 12 12 15 19 18 17 19 17 13 15 12 11 17 19 22 22 19 19 19 19 17 15 15 14 13 12 9 9 7 7 6 6 5 6 6 4 4 5 4 4 4 3 2 3 4 4 4 5
12 18 18 18 13 15 16 27 28 16 12 9 12 13 17 20 21 23 21 20 20 17 16 14 14 13 12 12 10 8 7 6 5 5 5 5 3 5 4 4 4 4 3 2 3 4 4 4 6
8 13 17 12 20 15 12 25 20 21 17 17 14 13 16 21 22 20 19 18 18 17 16 15 12 13 12 10 9 7 7 5 4 3 4 5 6 6 5 5 4 3 2 3 4 3 4 4 5
12 15 17 15 16 15 25 22 17 16 15 18 16 15 16 17 19 19 20 19 19 17 18 15 17 15 12 10 8 7 7 5 4 4 5 6 6 6 5 5 4 4 4 4 4 5 3 4 5
10 15 17 20 13 9 25 25 21 16 22 21 17 16 16 18 23 20 19 19 17 18 17 18 16 15 13 10 8 6 6 5 4 4 4 6 6 7 6 6 5 4 4 4 6 7 6 5 5
18 19 21 18 13 14 14 15 14 17 19 22 22 18 17 19 16 17 19 20 18 18 18 19 18 17 12 10 9 6 6 5 5 5 6 7 7 7 7 6 6 6 6 6 4 3 5 6 4
18 18 19 15 19 22 21 26 18 17 17 21 21 21 19 16 18 18 21 20 19 19 18 19 18 18 14 11 8 5 6 4 6 5 7 7 8 8 7 8 7 6 5 5 5 4 3 3 4
19 19 18 13 14 21 16 25 23 17 21 21 24 21 20 21 18 18 20 22 20 19 20 19 19 19 14 13 9 8 8 6 5 6 6 7 9 9 9 9 7 6 5 4 5 4 4 4 4
16 16 17 18 11 10 8 22 26 21 23 26 24 25 21 19 18 17 18 20 21 18 18 19 18 19 16 15 10 15 10 9 5 7 7 8 9 10 9 9 7 6 4 6 5 5 5 3 4
11 13 15 16 16 13 16 14 13 20 25 24 24 27 25 20 19 19 19 19 19 16 15 15 16 15 14 13 13 10 10 8 9 8 11 10 9 9 9 8 7 8 5 6 9 8 9 7 6
10 9 12 15 13 14 19 16 19 17 24 24 22 24 23 19 20 20 12 13 15 13 13 11 14 12 12 11 10 10 14 13 11 10 7 6 6 6 8 9 7 6 7 8 8 8 10 8 8
11 7 5 6 8 12 16 17 26 17 25 27 25 23 22 20 20 16 17 15 12 14 13 11 12 10 10 11 11 13 14 14 15 13 9 10 6 6 6 7 6 7 8 8 8 8 9 9 8
8 6 5 9 9 13 9 7 9 3 11 17 20 24 28 27 21 20 18 14 14 11 11 12 12 12 12 13 14 14 17 10 10 8 9 9 8 6 7 7 8 9 9 9 7 7 7 8 8
3 7 4 7 15 12 10 11 11 4 5 10 18 21 23 24 22 21 17 15 14 13 11 11 12 12 12 14 14 14 12 11 12 14 10 8 9 6 8 9 8 9 9 9 8 7 7 7 7
6 3 5 5 7 12 9 8 10 11 16 15 16 21 15 16 16 16 16 15 12 12 13 12 12 12 13 12 10 12 12 13 11 13 12 11 10 10 9 9 9 9 8 8 8 7 6 7 5
4 5 5 5 8 5 7 4 2 10 13 17 10 11 14 15 14 13 14 14 13 12 18 12 13 15 13 14 15 11 11 12 10 12 11 10 11 10 9 9 9 8 8 7 8 7 6 7 6
3 10 5 6 4 5 2 3 5 9 12 11 4 3 8 12 14 14 15 15 15 14 16 13 12 13 14 14 18 9 12 11 12 10 12 10 10 8 9 9 9 8 7 7 6 6 5 5 5
Wind_Direction
323 352 288 238 235 241 230 210 282 160 168 125 142 192 203 4 206 5 142 125 145 152 155 167 172 158 162 158 157 150 145 134 131 131 130 127 119 114 102 103 99 95 95 91 83 83 77 73 70
322 313 233 251 249 227 212 219 214 174 114 143 147 143 183 136 110 120 144 178 155 151 158 159 153 162 165 162 157 160 150 134 135 135 134 130 125 123 117 112 103 99 97 84 78 73 71 68 65
299 306 265 252 241 237 246 206 213 125 144 169 149 271 144 131 139 152 131 160 153 155 158 146 167 176 176 168 163 162 147 135 141 142 140 132 135 122 112 108 105 96 86 84 81 76 71 67 62
310 197 174 247 234 249 260 358 200 161 203 222 211 163 153 318 154 163 152 154 158 156 158 146 167 179 177 165 163 156 145 138 145 145 143 137 130 127 122 113 102 94 92 90 85 77 69 63 56
260 227 242 243 249 261 255 272 209 202 187 188 208 157 137 129 135 145 153 154 157 157 154 152 152 151 160 158 159 151 140 139 147 150 143 148 139 128 124 117 109 101 93 86 78 69 62 56 49
195 263 232 241 238 253 262 244 210 223 214 167 208 165 127 121 154 161 156 152 161 158 159 141 125 125 138 146 145 144 138 141 144 136 137 130 134 132 126 119 111 100 87 80 71 57 45 41 33
237 213 237 245 258 272 247 195 210 215 211 209 344 185 112 164 163 168 164 154 162 162 161 152 141 128 114 119 122 124 126 141 144 144 143 133 126 123 118 114 113 101 84 64 50 35 25 26 29
253 240 214 225 235 253 250 205 297 216 214 81 192 204 184 177 162 169 164 159 161 173 167 163 149 150 144 137 121 126 136 138 134 126 123 123 120 119 117 128 85 76 61 49 40 41 45 50 44
217 230 230 223 213 224 173 202 146 351 227 204 195 272 2 148 160 167 169 167 168 173 174 171 165 163 156 149 138 134 132 124 122 128 121 151 149 153 160 77 78 65 53 50 57 60 53 41 102
220 231 234 234 226 226 200 245 220 193 207 232 206 147 141 154 164 173 178 176 179 177 179 176 174 167 161 155 160 158 151 161 160 163 165 162 156 146 139 121 123 110 94 98 89 70 69 359 12
217 242 241 243 232 222 235 242 218 225 219 232 225 184 161 168 172 186 185 186 181 179 177 179 176 174 169 163 167 164 164 160 164 162 167 162 163 167 167 149 156 133 176 81 87 42 32 31 18
250 241 256 243 237 238 230 244 227 240 249 162 225 175 173 180 183 189 191 183 186 176 185 184 178 176 176 170 181 170 170 169 167 169 172 170 171 161 153 144 120 97 48 52 35 45 39 43 54
249 254 255 254 254 252 262 250 258 249 257 241 196 166 181 191 191 191 195 188 187 184 181 185 180 178 176 180 175 172 170 180 171 170 174 176 168 164 158 121 93 77 66 43 45 59 61 69 65
317 289 279 264 255 251 253 251 242 241 262 236 186 188 187 196 198 188 191 192 190 188 184 186 190 181 174 181 177 172 171 166 176 175 171 177 169 159 146 135 94 79 67 81 61 51 65 78 90
284 277 276 253 257 249 261 255 242 246 238 230 222 196 194 197 195 203 193 192 189 187 183 182 195 186 181 179 176 172 170 173 174 166 168 177 165 140 105 94 73 55 60 82 99 74 75 94 95
273 267 256 246 243 239 224 258 240 230 238 242 226 211 201 200 196 207 201 193 190 183 185 179 191 187 187 181 177 171 165 154 130 125 126 112 109 107 106 104 91 80 88 69 58 55 71 85 105
239 258 250 247 243 242 222 259 248 234 229 238 233 214 208 203 199 201 200 194 187 189 185 180 189 184 179 176 173 154 127 121 110 112 116 113 104 111 118 101 95 96 94 88 86 68 55 99 97
256 257 253 251 262 282 254 250 251 253 231 231 236 222 211 210 207 194 189 194 188 191 186 185 183 179 169 157 140 120 106 95 88 85 89 109 103 103 102 97 89 81 89 86 78 79 62 50 75
276 274 272 275 282 301 279 287 296 264 237 236 236 225 215 215 202 201 197 192 189 194 188 186 178 175 164 162 147 144 134 121 98 85 79 84 92 95 95 92 88 78 74 71 68 84 67 46 26
260 265 270 288 264 269 277 276 259 268 273 258 236 229 217 210 197 191 196 193 192 186 186 183 181 173 174 169 165 144 144 125 116 102 85 83 88 92 93 94 81 69 78 57 51 69 127 75 21
247 248 259 251 294 281 283 273 265 248 251 249 255 243 222 206 193 185 197 194 187 188 186 184 181 177 173 152 122 105 102 108 119 117 94 82 85 82 84 80 81 73 60 57 49 35 70 120 68
269 253 254 256 268 262 235 268 253 243 245 236 234 237 229 209 196 181 189 198 186 189 187 185 183 181 170 156 152 164 171 160 146 134 114 97 82 78 75 77 76 69 62 61 57 46 55 94 107
255 263 260 257 247 288 270 265 262 245 244 246 231 223 221 209 193 185 186 196 184 184 183 184 179 170 161 166 170 166 144 121 124 120 113 102 86 79 79 72 61 70 64 63 63 57 57 56 69
272 288 271 256 249 251 259 249 271 247 249 239 233 218 216 199 195 191 176 161 165 159 158 149 153 157 153 151 149 144 140 135 128 119 110 90 81 75 68 78 79 76 76 70 72 69 67 71 72
250 269 277 232 216 256 253 251 249 250 239 231 216 206 206 195 182 160 161 165 159 161 157 151 147 137 132 131 127 127 125 130 127 129 131 127 105 92 104 99 102 94 93 86 80 73 68 65 69
206 214 255 291 245 272 192 247 251 260 295 285 270 212 197 181 174 169 168 164 161 143 154 148 141 134 129 125 124 125 128 130 122 125 118 112 112 119 124 110 100 104 96 87 86 83 76 72 71
134 209 260 266 257 272 255 245 283 328 322 315 283 250 201 177 177 165 163 156 140 150 143 135 131 127 129 131 132 132 129 122 121 114 114 110 112 123 115 110 109 99 94 97 94 89 87 81 75
226 348 269 209 246 232 228 241 244 338 316 312 323 232 181 166 166 151 148 135 139 134 117 112 120 118 116 111 114 119 111 107 123 114 120 116 117 117 117 115 110 103 104 102 98 96 93 89 79
209 244 218 258 245 262 272 232 48 294 291 284 303 209 157 147 141 134 119 121 120 120 111 118 115 118 109 101 100 95 106 113 107 105 107 113 116 124 127 121 117 114 107 103 101 100 107 96 89
287 275 238 259 337 252 309 286 20 320 305 260 102 18 118 121 126 120 120 122 116 113 105 110 107 102 106 108 95 95 96 98 101 102 110 116 116 123 125 122 114 110 104 106 112 114 110 109 106